Tracking 30995 objects as of 5-Jul-2025
HD Live streaming from Space Station
objects crossing your sky now

DMSP 5D-2 F11 DEB

Track DMSP 5D-2 F11 DEB now!
10-day predictions


NORAD ID: 29074
Int'l Code: 1991-082BV
Perigee: 718.6 km
Apogee: 732.6 km
Inclination: 98.6 °
Period: 99.2 minutes
Semi major axis: 7096 km
RCS: 0.0073 m2 (small)
Launch date: November 28, 1991
Source: United States (US)
Launch site: AIR FORCE WESTERN TEST RANGE (AFWTR)

Note: This is SATELLITE DEBRIS
Your satellite tracking list
CARTOSAT 2D
Track 1 satellite(s)




NASA's NSSDC Master Catalog

Two Line Element Set (TLE):
1 29074U 91082BV  25185.48351958  .00005711  00000-0  14177-2 0  9992
2 29074  98.5894 262.8071 0009874 140.4144 219.7773 14.52196818 83203
Source of the keplerian elements: AFSPC